星链-32281 (STARLINK-32281)

导读 | 豆包AI

STARLINK-32281是美国SpaceX公司星链(Starlink)卫星互联网星座的成员,于北京时间2024年8月4日由猎鹰九号运载火箭从范登堡太空军基地发射入轨,属于第二代迷你星链卫星(Starlink v2.0 mini),运行于近地轨道。星链旨在构建全球覆盖的天基互联网系统,该卫星的入轨进一步扩充了星链星座规模,助力为全球用户提供高速卫星互联网接入服务。

基本信息
目录编号:
60375
目录名称:
STARLINK-32281
国际标识:
2024-138W
轨道中心:
EARTH
卫星名称:
星链-32281 (STARLINK-32281)
卫星全名:
星链-32281 (STARLINK-32281)
卫星状态:
在轨 (已飞行588 天)
发射日期:
2024-08-04 UTC
国别 :
美国 (US)
星等 :
--
轨道信息
数据来源 国际轨道数据
星历时间: 2026-03-15T04:53:55+0800
17小时前
查看轨道信息
半长轴: 6853.347km
偏心率: 0.000128
轨道倾角: 53.161°
近地点辐角 82.606°
升交点赤经 285.339°
平近点角 277.508°
近地点: 474.332km
远地点: 476.088km
周期: 94.105分钟
每日圈数: 15.302019
详细信息
卫星平台:
Starlink v2.0 mini
运营商:
太空探索技术公司
运营商所在国:
美国
制造商(研发单位):
太空探索技术公司
制造商所在国:
美国
使用方式:
暂无
卫星简介
星链(Starlink)计划是由太空探索技术公司(SpaceX)提出的一个巨型低轨卫星互联网星座项目,计划在2019年至2024年间在太空搭建由约1.2万颗卫星组成的“星链”网络,其中1584颗将部署在地球上空550千米处的近地轨道,并从2020年开始工作。该卫星仍在工作。
2D轨道图
3D轨道图
轨道高度分析图
轨道倾角分析图
轨道综合分析图
查看轨道综合分析图